• In Czech Republic
  • List of Countries
  • For 7 days
  • Water Temperature
  • Satellite Maps
  • Weather Map
  • Weather Widgets
  • user-avatar
    Login

    Hourly Weather Nallıhan

    Today, 17 October, Tuesday

    Time Temperature Precipitation Wind Pressure Humidity
    00:00 +12°C° 0 mm 1 mps 713 mmHg 89%
    01:00 +11°C° 0 mm 1 mps 712 mmHg 90%
    02:00 +11°C° 0 mm 1 mps 712 mmHg 92%
    03:00 +11°C° 0 mm 1 mps 712 mmHg 89%
    04:00 +11°C° 0 mm 1 mps 712 mmHg 85%
    05:00 +10°C° 0 mm 1 mps 712 mmHg 82%
    06:00 +12°C° 0 mm 1 mps 712 mmHg 75%
    07:00 +13°C° 0 mm 1 mps 713 mmHg 68%
    08:00 +14°C° 0 mm 1 mps 713 mmHg 61%
    09:00 +16°C° 0 mm 1 mps 713 mmHg 52%
    10:00 +19°C° 0 mm 1 mps 713 mmHg 44%
    11:00 +20°C° 0 mm 1 mps 713 mmHg 35%
    12:00 +21°C° 0 mm 1 mps 713 mmHg 33%
    13:00 +22°C° 0 mm 1 mps 713 mmHg 31%
    14:00 +23°C° 0 mm 1 mps 713 mmHg 28%
    15:00 +22°C° 0 mm 1 mps 713 mmHg 32%
    16:00 +20°C° 0 mm 1 mps 712 mmHg 36%
    17:00 +19°C° 0 mm 1 mps 712 mmHg 40%
    18:00 +18°C° 0 mm 1 mps 712 mmHg 43%
    19:00 +16°C° 0 mm 1 mps 712 mmHg 45%
    20:00 +16°C° 0 mm 1 mps 712 mmHg 47%
    21:00 +15°C° 0 mm 1 mps 712 mmHg 47%
    22:00 +15°C° 0 mm 1 mps 711 mmHg 47%
    23:00 +15°C° 0 mm 1 mps 711 mmHg 47%

    Tomorrow, 18 October, Wednesday

    Time Temperature Precipitation Wind Pressure Humidity
    00:00 +14°C° 0 mm 1 mps 711 mmHg 47%
    01:00 +14°C° 0 mm 1 mps 711 mmHg 47%
    02:00 +14°C° 0 mm 1 mps 711 mmHg 47%
    03:00 +13°C° 0 mm 1 mps 710 mmHg 48%
    04:00 +13°C° 0 mm 1 mps 710 mmHg 48%
    05:00 +13°C° 0 mm 1 mps 710 mmHg 49%
    06:00 +14°C° 0 mm 1 mps 710 mmHg 46%
    07:00 +15°C° 0 mm 1 mps 710 mmHg 44%
    08:00 +18°C° 0 mm 1 mps 711 mmHg 41%
    09:00 +19°C° 0 mm 1 mps 711 mmHg 38%
    10:00 +21°C° 0 mm 1 mps 711 mmHg 34%
    11:00 +22°C° 0 mm 1 mps 711 mmHg 30%
    12:00 +23°C° 0 mm 1 mps 710 mmHg 29%
    13:00 +23°C° 0 mm 1 mps 710 mmHg 28%
    14:00 +24°C° 0 mm 1 mps 709 mmHg 27%
    15:00 +23°C° 0 mm 1 mps 709 mmHg 31%
    16:00 +21°C° 0 mm 1 mps 709 mmHg 35%
    17:00 +20°C° 0 mm 1 mps 708 mmHg 39%
    18:00 +19°C° 0 mm 1 mps 708 mmHg 41%
    19:00 +18°C° 0 mm 1 mps 708 mmHg 42%
    20:00 +18°C° 0 mm 1 mps 708 mmHg 43%
    21:00 +16°C° 0 mm 1 mps 708 mmHg 43%
    22:00 +16°C° 0 mm 1 mps 708 mmHg 43%
    23:00 +16°C° 0 mm 1 mps 708 mmHg 43%

    Day after tomorrow, 19 October, Thursday

    Time Temperature Precipitation Wind Pressure Humidity
    00:00 +15°C° 0 mm 1 mps 708 mmHg 44%
    01:00 +15°C° 0 mm 1 mps 708 mmHg 44%
    02:00 +15°C° 0 mm 1 mps 708 mmHg 45%
    03:00 +14°C° 0 mm 1 mps 707 mmHg 46%
    04:00 +14°C° 0 mm 1 mps 707 mmHg 47%
    05:00 +14°C° 0 mm 1 mps 707 mmHg 48%
    06:00 +15°C° 0 mm 1 mps 707 mmHg 46%
    07:00 +16°C° 0 mm 1 mps 708 mmHg 44%
    08:00 +18°C° 0 mm 1 mps 708 mmHg 42%
    09:00 +20°C° 0 mm 1 mps 708 mmHg 38%
    10:00 +20°C° 0 mm 2 mps 708 mmHg 34%
    11:00 +23°C° 0 mm 2 mps 708 mmHg 30%
    12:00 +23°C° 0 mm 1 mps 708 mmHg 28%
    13:00 +24°C° 0 mm 1 mps 707 mmHg 27%
    14:00 +24°C° 0 mm 1 mps 707 mmHg 25%
    15:00 +23°C° 0 mm 1 mps 707 mmHg 29%
    16:00 +22°C° 0 mm 1 mps 707 mmHg 33%
    17:00 +20°C° 0 mm 1 mps 706 mmHg 38%
    18:00 +19°C° 0 mm 1 mps 706 mmHg 39%
    19:00 +19°C° 0 mm 1 mps 707 mmHg 41%
    20:00 +18°C° 0 mm 1 mps 707 mmHg 42%
    21:00 +15°C° 0 mm 0 mps 707 mmHg 43%
    22:00 +15°C° 0 mm 0 mps 707 mmHg 44%
    23:00 +14°C° 0 mm 0 mps 707 mmHg 45%

    20 October, Friday

    Time Temperature Precipitation Wind Pressure Humidity
    00:00 +14°C° 0 mm 0 mps 707 mmHg 45%
    01:00 +14°C° 0 mm 0 mps 707 mmHg 46%
    02:00 +13°C° 0 mm 0 mps 707 mmHg 46%
    03:00 +13°C° 0 mm 0 mps 707 mmHg 47%
    04:00 +13°C° 0 mm 0 mps 707 mmHg 48%
    05:00 +12°C° 0 mm 0 mps 706 mmHg 48%
    06:00 +14°C° 0 mm 0 mps 707 mmHg 45%
    07:00 +15°C° 0 mm 0 mps 707 mmHg 42%
    08:00 +17°C° 0 mm 0 mps 708 mmHg 39%
    09:00 +18°C° 0 mm 0 mps 708 mmHg 35%
    10:00 +20°C° 0 mm 0 mps 708 mmHg 32%
    11:00 +23°C° 0 mm 1 mps 708 mmHg 29%
    12:00 +23°C° 0 mm 1 mps 708 mmHg 28%
    13:00 +24°C° 0 mm 1 mps 708 mmHg 27%
    14:00 +24°C° 0 mm 1 mps 708 mmHg 26%
    15:00 +23°C° 0 mm 1 mps 708 mmHg 31%
    16:00 +22°C° 0 mm 1 mps 708 mmHg 35%
    17:00 +20°C° 0 mm 1 mps 707 mmHg 40%
    18:00 +19°C° 0 mm 1 mps 707 mmHg 43%
    19:00 +19°C° 0 mm 1 mps 708 mmHg 46%
    20:00 +18°C° 0 mm 1 mps 708 mmHg 48%
    21:00 +16°C° 0 mm 1 mps 708 mmHg 50%
    22:00 +16°C° 0 mm 1 mps 708 mmHg 52%
    23:00 +15°C° 0 mm 1 mps 708 mmHg 53%

    21 October, Saturday

    Time Temperature Precipitation Wind Pressure Humidity
    00:00 +15°C° 0 mm 1 mps 708 mmHg 54%
    01:00 +14°C° 0 mm 0 mps 708 mmHg 56%
    02:00 +13°C° 0 mm 0 mps 708 mmHg 57%
    03:00 +13°C° 0 mm 0 mps 707 mmHg 58%
    04:00 +13°C° 0 mm 0 mps 707 mmHg 59%
    05:00 +12°C° 0 mm 0 mps 707 mmHg 60%
    06:00 +13°C° 0 mm 0 mps 708 mmHg 55%
    07:00 +15°C° 0 mm 0 mps 708 mmHg 51%
    08:00 +16°C° 0 mm 0 mps 708 mmHg 47%
    09:00 +18°C° 0 mm 0 mps 708 mmHg 42%
    10:00 +19°C° 0 mm 0 mps 708 mmHg 37%
    11:00 +21°C° 0 mm 0 mps 708 mmHg 31%
    12:00 +23°C° 0 mm 1 mps 708 mmHg 30%
    13:00 +24°C° 0 mm 1 mps 708 mmHg 28%
    14:00 +24°C° 0 mm 1 mps 707 mmHg 26%
    15:00 +23°C° 0 mm 1 mps 707 mmHg 31%
    16:00 +21°C° 0 mm 1 mps 707 mmHg 35%
    17:00 +20°C° 0 mm 1 mps 706 mmHg 40%
    18:00 +19°C° 0 mm 1 mps 706 mmHg 42%
    19:00 +18°C° 0 mm 1 mps 707 mmHg 45%
    20:00 +16°C° 0 mm 1 mps 707 mmHg 47%
    21:00 +16°C° 0 mm 1 mps 706 mmHg 49%
    22:00 +15°C° 0 mm 1 mps 706 mmHg 50%
    23:00 +15°C° 0 mm 1 mps 706 mmHg 52%

    22 October, Sunday

    Time Temperature Precipitation Wind Pressure Humidity
    00:00 +15°C° 0 mm 1 mps 706 mmHg 53%
    01:00 +13°C° 0 mm 0 mps 706 mmHg 54%
    02:00 +13°C° 0 mm 0 mps 706 mmHg 56%
    03:00 +12°C° 0 mm 0 mps 706 mmHg 57%
    04:00 +12°C° 0 mm 0 mps 706 mmHg 58%
    05:00 +13°C° 0 mm 1 mps 706 mmHg 59%
    06:00 +14°C° 0 mm 1 mps 706 mmHg 55%
    07:00 +14°C° 0 mm 0 mps 706 mmHg 51%
    08:00 +15°C° 0 mm 0 mps 706 mmHg 47%
    09:00 +17°C° 0 mm 0 mps 706 mmHg 41%
    10:00 +20°C° 0 mm 1 mps 707 mmHg 35%
    11:00 +22°C° 0 mm 1 mps 707 mmHg 29%
    12:00 +23°C° 0 mm 1 mps 706 mmHg 27%
    13:00 +23°C° 0 mm 1 mps 706 mmHg 25%
    14:00 +23°C° 0 mm 1 mps 705 mmHg 23%
    15:00 +22°C° 0 mm 1 mps 705 mmHg 27%
    16:00 +21°C° 0 mm 1 mps 705 mmHg 31%
    17:00 +19°C° 0 mm 1 mps 705 mmHg 35%
    18:00 +18°C° 0 mm 1 mps 705 mmHg 37%
    19:00 +18°C° 0 mm 1 mps 705 mmHg 39%
    20:00 +16°C° 0 mm 1 mps 705 mmHg 42%
    21:00 +15°C° 0 mm 1 mps 704 mmHg 42%
    22:00 +15°C° 0 mm 1 mps 704 mmHg 43%
    23:00 +14°C° 0 mm 1 mps 704 mmHg 44%
    Show more